| time (UTC) | temp C | wind direction | speed KPH | gust KPH | rain 1hr cm | rain 24hr cm | rain mn cm | humidity % | barometer mb |
| 20260505083937 | 0 | 37 | 8.0 | 11.3 | 0.00 | 0.00 | 0.00 | 94 | 1014.8 |
| 20260505083434 | 0 | 29 | 8.0 | 11.3 | 0.00 | 0.00 | 0.00 | 94 | 1014.9 |
| 20260505082931 | 0 | 39 | 6.4 | 12.9 | 0.00 | 0.00 | 0.00 | 94 | 1014.4 |
| 20260505082426 | 0 | 58 | 6.4 | 11.3 | 0.00 | 0.00 | 0.00 | 94 | 1014.4 |
| 20260505081924 | 1 | 39 | 3.2 | 9.7 | 0.00 | 0.00 | 0.00 | 94 | 1014.5 |
| 20260505081421 | 1 | 43 | 9.7 | 16.1 | 0.00 | 0.00 | 0.00 | 93 | 1014.5 |
| 20260505080917 | 1 | 50 | 8.0 | 14.5 | 0.00 | 0.00 | 0.00 | 93 | 1014.3 |
| 20260505080413 | 1 | 24 | 17.7 | 22.5 | 0.00 | 0.00 | 0.00 | 93 | 1014.4 |
| 20260505075908 | 1 | 357 | 16.1 | 24.1 | 0.00 | 0.00 | 0.00 | 93 | 1014.5 |
| 20260505075406 | 1 | 356 | 14.5 | 17.7 | 0.00 | 0.00 | 0.00 | 93 | 1014.4 |
| 20260505074903 | 1 | 40 | 14.5 | 20.9 | 0.00 | 0.00 | 0.00 | 93 | 1014.3 |
| 20260505074400 | 1 | 38 | 11.3 | 17.7 | 0.00 | 0.00 | 0.00 | 93 | 1014.4 |
| 20260505073857 | 1 | 37 | 9.7 | 17.7 | 0.00 | 0.00 | 0.00 | 92 | 1014.3 |
| 20260505073349 | 1 | 26 | 11.3 | 17.7 | 0.00 | 0.00 | 0.00 | 92 | 1014.4 |
| 20260505072846 | 1 | 39 | 11.3 | 17.7 | 0.00 | 0.00 | 0.00 | 92 | 1014.3 |
| 20260505072342 | 1 | 0 | 16.1 | 22.5 | 0.00 | 0.00 | 0.00 | 92 | 1014.5 |
| 20260505071838 | 1 | 23 | 19.3 | 27.4 | 0.00 | 0.00 | 0.00 | 92 | 1014.5 |
| 20260505071335 | 1 | 30 | 12.9 | 22.5 | 0.00 | 0.00 | 0.00 | 91 | 1014.7 |
| 20260505070833 | 2 | 47 | 19.3 | 29.0 | 0.00 | 0.00 | 0.00 | 91 | 1014.4 |
| 20260505070329 | 2 | 1 | 17.7 | 24.1 | 0.00 | 0.00 | 0.00 | 91 | 1014.4 |
| 20260505065825 | 2 | 60 | 12.9 | 17.7 | 0.00 | 0.00 | 0.00 | 90 | 1014.2 |
| 20260505065321 | 2 | 32 | 19.3 | 24.1 | 0.00 | 0.00 | 0.00 | 90 | 1014.4 |
| 20260505064819 | 2 | 21 | 20.9 | 29.0 | 0.00 | 0.00 | 0.00 | 90 | 1014.2 |
| 20260505064316 | 2 | 26 | 9.7 | 27.4 | 0.00 | 0.00 | 0.00 | 90 | 1014.2 |
| 20260505063814 | 2 | 359 | 22.5 | 25.7 | 0.00 | 0.00 | 0.00 | 89 | 1014.2 |
| 20260505063310 | 2 | 353 | 19.3 | 25.7 | 0.00 | 0.00 | 0.00 | 89 | 1014.4 |
| 20260505062806 | 2 | 7 | 27.4 | 37.0 | 0.00 | 0.00 | 0.00 | 88 | 1014.5 |
| 20260505062304 | 2 | 350 | 20.9 | 35.4 | 0.00 | 0.00 | 0.00 | 87 | 1014.2 |
| 20260505061800 | 3 | 347 | 27.4 | 37.0 | 0.00 | 0.00 | 0.00 | 87 | 1014.2 |
| 20260505061259 | 3 | 35 | 22.5 | 33.8 | 0.00 | 0.00 | 0.00 | 87 | 1014.3 |
| 20260505060756 | 3 | 38 | 16.1 | 29.0 | 0.00 | 0.00 | 0.00 | 86 | 1014.3 |
| 20260505060253 | 3 | 358 | 25.7 | 33.8 | 0.00 | 0.00 | 0.00 | 84 | 1014.1 |
| 20260505055748 | 3 | 31 | 17.7 | 25.7 | 0.00 | 0.00 | 0.00 | 83 | 1013.8 |
| 20260505055244 | 4 | 22 | 22.5 | 40.2 | 0.00 | 0.00 | 0.00 | 80 | 1014.1 |
| 20260505054742 | 5 | 38 | 19.3 | 32.2 | 0.00 | 0.00 | 0.00 | 77 | 1013.8 |
| 20260505054239 | 6 | 68 | 9.7 | 12.9 | 0.00 | 0.00 | 0.00 | 72 | 1013.2 |
| 20260505053738 | 6 | 62 | 11.3 | 17.7 | 0.00 | 0.00 | 0.00 | 71 | 1013.6 |
| 20260505053234 | 6 | 75 | 4.8 | 17.7 | 0.00 | 0.00 | 0.00 | 68 | 1013.5 |
| 20260505052731 | 6 | 77 | 6.4 | 14.5 | 0.00 | 0.00 | 0.00 | 67 | 1013.5 |
| 20260505052228 | 7 | 63 | 6.4 | 14.5 | 0.00 | 0.00 | 0.00 | 65 | 1013.4 |
| 20260505051725 | 7 | 74 | 11.3 | 16.1 | 0.00 | 0.00 | 0.00 | 64 | 1013.2 |
| 20260505051223 | 7 | 64 | 9.7 | 14.5 | 0.00 | 0.00 | 0.00 | 65 | 1013.4 |
| 20260505050721 | 7 | 71 | 6.4 | 16.1 | 0.00 | 0.00 | 0.00 | 64 | 1013.0 |
| 20260505050219 | 7 | 59 | 8.0 | 17.7 | 0.00 | 0.00 | 0.00 | 64 | 1013.1 |
| 20260505041648 | 7 | 70 | 17.7 | 27.4 | 0.00 | 0.00 | 0.00 | 63 | 1013.1 |
| 20260505041146 | 8 | 68 | 12.9 | 24.1 | 0.00 | 0.00 | 0.00 | 63 | 1013.2 |
| 20260505040643 | 8 | 60 | 17.7 | 25.7 | 0.00 | 0.00 | 0.00 | 62 | 1013.4 |
| 20260505040140 | 8 | 58 | 11.3 | 20.9 | 0.00 | 0.00 | 0.00 | 62 | 1013.0 |
| 20260505035636 | 8 | 68 | 14.5 | 22.5 | 0.00 | 0.00 | 0.00 | 61 | 1012.9 |
| 20260505035132 | 8 | 74 | 6.4 | 14.5 | 0.00 | 0.00 | 0.00 | 62 | 1013.1 |
| 20260505034629 | 8 | 40 | 8.0 | 17.7 | 0.00 | 0.00 | 0.00 | 62 | 1012.9 |
| 20260505034126 | 8 | 46 | 9.7 | 14.5 | 0.00 | 0.00 | 0.00 | 62 | 1012.8 |
| 20260505033623 | 8 | 42 | 9.7 | 20.9 | 0.00 | 0.00 | 0.00 | 62 | 1012.9 |
| 20260505033121 | 8 | 46 | 8.0 | 20.9 | 0.00 | 0.00 | 0.00 | 61 | 1012.7 |
| 20260505032619 | 8 | 22 | 9.7 | 22.5 | 0.00 | 0.00 | 0.00 | 62 | 1012.8 |
| 20260505032115 | 8 | 42 | 9.7 | 16.1 | 0.00 | 0.00 | 0.00 | 62 | 1012.4 |
| 20260505031613 | 8 | 44 | 11.3 | 24.1 | 0.00 | 0.00 | 0.00 | 61 | 1012.5 |
| 20260505031108 | 8 | 68 | 8.0 | 20.9 | 0.00 | 0.00 | 0.00 | 61 | 1012.4 |
| 20260505030606 | 8 | 48 | 6.4 | 14.5 | 0.00 | 0.00 | 0.00 | 62 | 1012.4 |
| 20260505025557 | 9 | 50 | 9.7 | 20.9 | 0.00 | 0.00 | 0.00 | 61 | 1012.4 |
| 20260505025056 | 9 | 45 | 8.0 | 17.7 | 0.00 | 0.00 | 0.00 | 62 | 1012.4 |
| 20260505024553 | 8 | 48 | 9.7 | 12.9 | 0.00 | 0.00 | 0.00 | 63 | 1012.3 |
| 20260505024050 | 8 | 72 | 3.2 | 8.0 | 0.00 | 0.00 | 0.00 | 67 | 1012.3 |
| 20260505023547 | 8 | 59 | 8.0 | 12.9 | 0.00 | 0.00 | 0.00 | 65 | 1011.8 |
| 20260505023045 | 9 | 55 | 8.0 | 11.3 | 0.00 | 0.00 | 0.00 | 66 | 1012.2 |
| 20260505022543 | 10 | 56 | 8.0 | 17.7 | 0.00 | 0.00 | 0.00 | 64 | 1012.2 |
| 20260505022040 | 10 | 149 | 0.0 | 3.2 | 0.00 | 0.00 | 0.00 | 70 | 1011.9 |
| 20260505021536 | 10 | 147 | 3.2 | 3.2 | 0.00 | 0.00 | 0.00 | 72 | 1011.8 |
| 20260505021033 | 9 | 144 | 4.8 | 8.0 | 0.00 | 0.00 | 0.00 | 74 | 1011.9 |
| 20260505020532 | 10 | 126 | 8.0 | 9.7 | 0.00 | 0.00 | 0.00 | 76 | 1011.9 |
| 20260505020030 | 10 | 145 | 6.4 | 8.0 | 0.00 | 0.00 | 0.00 | 77 | 1012.1 |
| 20260505015527 | 10 | 140 | 9.7 | 11.3 | 0.00 | 0.00 | 0.00 | 74 | 1011.8 |
| 20260505015024 | 10 | 132 | 8.0 | 9.7 | 0.00 | 0.00 | 0.00 | 68 | 1011.8 |
| 20260505014520 | 10 | 105 | 0.0 | 1.6 | 0.00 | 0.00 | 0.00 | 66 | 1011.8 |
| 20260505014018 | 11 | 154 | 3.2 | 4.8 | 0.00 | 0.00 | 0.00 | 63 | 1011.6 |
| 20260505013515 | 10 | 142 | 8.0 | 14.5 | 0.00 | 0.00 | 0.00 | 64 | 1011.9 |
| 20260505013012 | 9 | 197 | 1.6 | 3.2 | 0.00 | 0.00 | 0.00 | 75 | 1011.9 |
| 20260505012510 | 9 | 174 | 6.4 | 14.5 | 0.00 | 0.00 | 0.00 | 72 | 1011.9 |
| 20260505012007 | 10 | 172 | 11.3 | 16.1 | 0.00 | 0.00 | 0.00 | 77 | 1011.7 |
| 20260505011503 | 10 | 159 | 12.9 | 17.7 | 0.00 | 0.00 | 0.00 | 69 | 1011.6 |
| 20260505011000 | 12 | 231 | 14.5 | 24.1 | 0.00 | 0.00 | 0.00 | 60 | 1011.5 |
| 20260505010455 | 12 | 238 | 3.2 | 9.7 | 0.00 | 0.00 | 0.00 | 50 | 1011.4 |
| 20260505005951 | 12 | 213 | 1.6 | 3.2 | 0.00 | 0.00 | 0.00 | 52 | 1011.2 |
| 20260505005448 | 13 | 191 | 0.0 | 1.6 | 0.00 | 0.00 | 0.00 | 53 | 1011.1 |
| 20260505004946 | 13 | 215 | 3.2 | 4.8 | 0.00 | 0.00 | 0.00 | 49 | 1011.0 |
| 20260505004443 | 13 | 203 | 4.8 | 8.0 | 0.00 | 0.00 | 0.00 | 47 | 1010.6 |
| 20260505003939 | 13 | 151 | 11.3 | 14.5 | 0.00 | 0.00 | 0.00 | 47 | 1010.5 |
| 20260505003437 | 13 | 73 | 9.7 | 25.7 | 0.00 | 0.00 | 0.00 | 45 | 1010.6 |
| 20260505002933 | 14 | 56 | 12.9 | 17.7 | 0.00 | 0.00 | 0.00 | 44 | 1010.4 |
| 20260505002429 | 14 | 81 | 11.3 | 14.5 | 0.00 | 0.00 | 0.00 | 40 | 1010.4 |
| 20260505001928 | 14 | 102 | 16.1 | 20.9 | 0.00 | 0.00 | 0.00 | 40 | 1010.4 |
| 20260505001425 | 15 | 80 | 6.4 | 16.1 | 0.00 | 0.00 | 0.00 | 40 | 1010.4 |
| 20260505000922 | 15 | 37 | 11.3 | 20.9 | 0.00 | 0.00 | 0.00 | 40 | 1010.3 |
| 20260505000420 | 15 | 51 | 1.6 | 14.5 | 0.00 | 0.00 | 0.00 | 39 | 1010.2 |
| 20260504235916 | 15 | 46 | 8.0 | 14.5 | 0.00 | 0.00 | 0.00 | 39 | 1010.1 |
| 20260504235414 | 15 | 46 | 12.9 | 14.5 | 0.00 | 0.00 | 0.00 | 39 | 1009.9 |
| 20260504234909 | 15 | 50 | 11.3 | 16.1 | 0.00 | 0.00 | 0.00 | 39 | 1010.2 |
| 20260504234408 | 15 | 47 | 8.0 | 20.9 | 0.00 | 0.00 | 0.00 | 39 | 1009.9 |
| 20260504233904 | 15 | 54 | 9.7 | 14.5 | 0.00 | 0.00 | 0.00 | 38 | 1010.1 |
| 20260504233359 | 15 | 114 | 8.0 | 11.3 | 0.00 | 0.00 | 0.00 | 37 | 1009.9 |
| 20260504232856 | 15 | 45 | 6.4 | 16.1 | 0.00 | 0.00 | 0.00 | 38 | 1010.1 |
| 20260504232353 | 16 | 63 | 8.0 | 22.5 | 0.00 | 0.00 | 0.00 | 37 | 1010.1 |
| 20260504231850 | 15 | 65 | 8.0 | 16.1 | 0.00 | 0.00 | 0.00 | 37 | 1009.9 |
| 20260504231346 | 15 | 95 | 0.0 | 4.8 | 0.00 | 0.00 | 0.00 | 38 | 1010.1 |
| 20260504230843 | 15 | 60 | 1.6 | 3.2 | 0.00 | 0.00 | 0.00 | 37 | 1009.8 |
| 20260504230341 | 16 | 66 | 6.4 | 12.9 | 0.00 | 0.00 | 0.00 | 37 | 1009.8 |
| 20260504225839 | 15 | 179 | 3.2 | 9.7 | 0.00 | 0.00 | 0.00 | 37 | 1010.1 |
| 20260504225335 | 16 | 227 | 3.2 | 4.8 | 0.00 | 0.00 | 0.00 | 37 | 1010.2 |
| 20260504224833 | 16 | 100 | 4.8 | 11.3 | 0.00 | 0.00 | 0.00 | 36 | 1009.8 |
| 20260504224330 | 16 | 110 | 12.9 | 14.5 | 0.00 | 0.00 | 0.00 | 36 | 1009.6 |
| 20260504223826 | 16 | 101 | 4.8 | 11.3 | 0.00 | 0.00 | 0.00 | 37 | 1009.8 |
| 20260504223322 | 16 | 96 | 11.3 | 14.5 | 0.00 | 0.00 | 0.00 | 36 | 1009.9 |
| 20260504222819 | 16 | 25 | 6.4 | 11.3 | 0.00 | 0.00 | 0.00 | 36 | 1009.7 |
| 20260504222316 | 16 | 56 | 9.7 | 12.9 | 0.00 | 0.00 | 0.00 | 37 | 1009.7 |
| 20260504221815 | 16 | 91 | 6.4 | 14.5 | 0.00 | 0.00 | 0.00 | 38 | 1009.8 |
| 20260504221310 | 16 | 46 | 4.8 | 14.5 | 0.00 | 0.00 | 0.00 | 37 | 1010.1 |
| 20260504220807 | 16 | 40 | 14.5 | 17.7 | 0.00 | 0.00 | 0.00 | 37 | 1010.1 |
| 20260504220304 | 16 | 32 | 17.7 | 17.7 | 0.00 | 0.00 | 0.00 | 37 | 1010.2 |
| 20260504215801 | 15 | 23 | 11.3 | 29.0 | 0.00 | 0.00 | 0.00 | 38 | 1010.2 |
| 20260504215258 | 16 | 51 | 11.3 | 14.5 | 0.00 | 0.00 | 0.00 | 37 | 1010.4 |
| 20260504214754 | 16 | 33 | 8.0 | 14.5 | 0.00 | 0.00 | 0.00 | 37 | 1009.9 |
| 20260504214251 | 15 | 66 | 8.0 | 14.5 | 0.00 | 0.00 | 0.00 | 38 | 1010.3 |
| 20260504213747 | 16 | 36 | 14.5 | 22.5 | 0.00 | 0.00 | 0.00 | 37 | 1010.4 |
| 20260504213243 | 15 | 30 | 12.9 | 17.7 | 0.00 | 0.00 | 0.00 | 37 | 1010.3 |
| 20260504212740 | 16 | 37 | 14.5 | 20.9 | 0.00 | 0.00 | 0.00 | 37 | 1010.5 |
| 20260504212237 | 16 | 24 | 24.1 | 38.6 | 0.00 | 0.00 | 0.00 | 37 | 1010.1 |
| 20260504211735 | 16 | 56 | 11.3 | 20.9 | 0.00 | 0.00 | 0.00 | 36 | 1010.4 |
| 20260504211231 | 16 | 9 | 20.9 | 25.7 | 0.00 | 0.00 | 0.00 | 37 | 1010.4 |
| 20260504210728 | 16 | 26 | 17.7 | 32.2 | 0.00 | 0.00 | 0.00 | 36 | 1010.5 |
| 20260504210225 | 16 | 73 | 3.2 | 16.1 | 0.00 | 0.00 | 0.00 | 37 | 1010.5 |
| 20260504205722 | 16 | 43 | 11.3 | 20.9 | 0.00 | 0.00 | 0.00 | 37 | 1010.5 |
| 20260504205220 | 16 | 33 | 24.1 | 33.8 | 0.00 | 0.00 | 0.00 | 37 | 1010.6 |
| 20260504204718 | 16 | 351 | 14.5 | 29.0 | 0.00 | 0.00 | 0.00 | 37 | 1010.4 |
| 20260504204216 | 16 | 34 | 19.3 | 27.4 | 0.00 | 0.00 | 0.00 | 37 | 1010.5 |
| 20260504203715 | 16 | 26 | 19.3 | 27.4 | 0.00 | 0.00 | 0.00 | 37 | 1010.4 |
| 20260504203212 | 16 | 16 | 32.2 | 35.4 | 0.00 | 0.00 | 0.00 | 37 | 1010.3 |
| 20260504202711 | 16 | 18 | 17.7 | 22.5 | 0.00 | 0.00 | 0.00 | 36 | 1010.5 |
| 20260504202204 | 16 | 94 | 8.0 | 16.1 | 0.00 | 0.00 | 0.00 | 37 | 1010.4 |
| 20260504201700 | 17 | 36 | 20.9 | 32.2 | 0.00 | 0.00 | 0.00 | 37 | 1010.3 |
| 20260504201158 | 16 | 341 | 22.5 | 32.2 | 0.00 | 0.00 | 0.00 | 36 | 1010.3 |
| 20260504200655 | 17 | 6 | 30.6 | 37.0 | 0.00 | 0.00 | 0.00 | 36 | 1010.6 |
| 20260504200152 | 17 | 19 | 20.9 | 32.2 | 0.00 | 0.00 | 0.00 | 36 | 1010.4 |
| 20260504195647 | 17 | 26 | 20.9 | 27.4 | 0.00 | 0.00 | 0.00 | 36 | 1010.1 |
| 20260504195144 | 17 | 12 | 30.6 | 37.0 | 0.00 | 0.00 | 0.00 | 34 | 1010.3 |
| 20260504194641 | 16 | 358 | 29.0 | 43.5 | 0.00 | 0.00 | 0.00 | 38 | 1010.2 |
| 20260504194137 | 18 | 58 | 24.1 | 29.0 | 0.00 | 0.00 | 0.00 | 36 | 1010.3 |
| 20260504193633 | 17 | 16 | 24.1 | 35.4 | 0.00 | 0.00 | 0.00 | 34 | 1010.2 |
| 20260504193132 | 17 | 68 | 11.3 | 25.7 | 0.00 | 0.00 | 0.00 | 35 | 1010.1 |
| 20260504192629 | 17 | 35 | 16.1 | 35.4 | 0.00 | 0.00 | 0.00 | 35 | 1010.2 |
| 20260504192127 | 17 | 59 | 27.4 | 40.2 | 0.00 | 0.00 | 0.00 | 36 | 1010.3 |
| 20260504191625 | 17 | 32 | 20.9 | 35.4 | 0.00 | 0.00 | 0.00 | 34 | 1010.3 |
| 20260504191121 | 17 | 355 | 24.1 | 41.8 | 0.00 | 0.00 | 0.00 | 36 | 1010.1 |
| 20260504190617 | 17 | 22 | 17.7 | 33.8 | 0.00 | 0.00 | 0.00 | 35 | 1009.8 |
| 20260504190114 | 17 | 26 | 27.4 | 40.2 | 0.00 | 0.00 | 0.00 | 34 | 1010.1 |
| 20260504185610 | 17 | 41 | 16.1 | 48.3 | 0.00 | 0.00 | 0.00 | 35 | 1010.2 |
| 20260504185107 | 17 | 11 | 20.9 | 40.2 | 0.00 | 0.00 | 0.00 | 35 | 1010.3 |
| 20260504184603 | 17 | 10 | 33.8 | 49.9 | 0.00 | 0.00 | 0.00 | 35 | 1010.2 |
| 20260504184058 | 17 | 35 | 17.7 | 38.6 | 0.00 | 0.00 | 0.00 | 35 | 1010.3 |
| 20260504183555 | 17 | 25 | 38.6 | 53.1 | 0.00 | 0.00 | 0.00 | 34 | 1010.4 |
| 20260504183054 | 18 | 40 | 30.6 | 41.8 | 0.00 | 0.00 | 0.00 | 33 | 1010.3 |
| 20260504182550 | 18 | 352 | 27.4 | 33.8 | 0.00 | 0.00 | 0.00 | 32 | 1010.3 |
| 20260504182048 | 17 | 27 | 29.0 | 43.5 | 0.00 | 0.00 | 0.00 | 34 | 1010.4 |
| 20260504181544 | 18 | 30 | 30.6 | 41.8 | 0.00 | 0.00 | 0.00 | 33 | 1010.2 |
| 20260504181043 | 18 | 359 | 38.6 | 41.8 | 0.00 | 0.00 | 0.00 | 32 | 1010.4 |
| 20260504180541 | 17 | 9 | 35.4 | 43.5 | 0.00 | 0.00 | 0.00 | 32 | 1010.4 |
| 20260504180040 | 18 | 26 | 32.2 | 38.6 | 0.00 | 0.00 | 0.00 | 31 | 1010.5 |
| 20260504175537 | 17 | 43 | 29.0 | 41.8 | 0.00 | 0.00 | 0.00 | 31 | 1010.4 |
| 20260504175034 | 17 | 9 | 29.0 | 37.0 | 0.00 | 0.00 | 0.00 | 31 | 1010.3 |
| 20260504174532 | 17 | 20 | 24.1 | 37.0 | 0.00 | 0.00 | 0.00 | 31 | 1010.3 |
| 20260504174028 | 17 | 28 | 49.9 | 56.3 | 0.00 | 0.00 | 0.00 | 30 | 1010.2 |
| 20260504173525 | 17 | 28 | 40.2 | 51.5 | 0.00 | 0.00 | 0.00 | 31 | 1010.1 |
| 20260504173022 | 16 | 72 | 25.7 | 43.5 | 0.00 | 0.00 | 0.00 | 31 | 1009.9 |
| 20260504172518 | 16 | 26 | 45.1 | 53.1 | 0.00 | 0.00 | 0.00 | 31 | 1010.2 |
| 20260504172015 | 17 | 7 | 37.0 | 62.8 | 0.00 | 0.00 | 0.00 | 31 | 1009.6 |
| 20260504171512 | 18 | 6 | 16.1 | 17.7 | 0.00 | 0.00 | 0.00 | 24 | 1009.6 |
| 20260504171009 | 18 | 38 | 9.7 | 11.3 | 0.00 | 0.00 | 0.00 | 24 | 1009.5 |
| 20260504170504 | 19 | 19 | 16.1 | 24.1 | 0.00 | 0.00 | 0.00 | 24 | 1009.5 |
| 20260504160425 | 18 | 40 | 4.8 | 14.5 | 0.00 | 0.00 | 0.00 | 24 | 1009.5 |
| 20260504150849 | 17 | 318 | 11.3 | 22.5 | 0.00 | 0.00 | 0.00 | 24 | 1009.5 |
| 20260504150345 | 17 | 359 | 11.3 | 17.7 | 0.00 | 0.00 | 0.00 | 26 | 1009.7 |
| 20260504141315 | 13 | 275 | 17.7 | 20.9 | 0.00 | 0.00 | 0.00 | 31 | 1010.2 |
| 20260504140812 | 13 | 255 | 16.1 | 20.9 | 0.00 | 0.00 | 0.00 | 32 | 1010.2 |
| 20260504140308 | 13 | 290 | 9.7 | 20.9 | 0.00 | 0.00 | 0.00 | 34 | 1009.9 |
| 20260504130737 | 8 | 212 | 4.8 | 8.0 | 0.00 | 0.00 | 0.00 | 50 | 1009.7 |
| 20260504130232 | 8 | 219 | 3.2 | 4.8 | 0.00 | 0.00 | 0.00 | 54 | 1009.7 |
| 20260504120156 | 2 | 270 | 9.7 | 14.5 | 0.00 | 0.00 | 0.00 | 65 | 1009.8 |
| 20260504110624 | 2 | 282 | 3.2 | 8.0 | 0.00 | 0.00 | 0.00 | 68 | 1009.8 |
| 20260504110120 | 2 | 201 | 0.0 | 1.6 | 0.00 | 0.00 | 0.00 | 68 | 1010.1 |
| 20260504100545 | 2 | 268 | 0.0 | 0.0 | 0.00 | 0.00 | 0.00 | 68 | 1010.2 |